Location: Kings Park
(40.8862°N, 73.2573°W)
Time: 04:40:42
(UTC+00:00)

SL-4 R/B - Pass Details

Date: 29 October 2020
Orbit: 427 x 665 km, 51.6° (Epoch: 29 November)

Event Time Altitude Azimuth Distance (km) Brightness Sun altitude
Rises 22:14:54 0° 304° (NW) 2,421 6.0 -5.0°
Reaches altitude 10° 22:17:40 10° 329° (NNW) 1,579 4.6 -5.5°
Maximum altitude 22:19:51 15° 7° (N) 1,308 3.8 -5.9°
Drops below altitude 10° 22:22:08 10° 46° (NE) 1,639 3.9 -6.3°
Enters shadow 22:23:07 - 56° (NE) 1,914 4.2 -6.5°
